sat.trackr.live / text

‹ back to catalog

STARLINK-2659

NORAD 48467 · 2021-040AR

PAYLOAD ACTIVE UNKNOWN

§ Identity

Operator
Country
US
Launch date
2021-05-09
Launch site
AFETR
Launch vehicle
Mass (kg)
RCS (m²)

Purposes: comms

External: N2YO · Heavens-Above · Gunter

§ Orbital elements

Epoch: 2026-05-25T04:00:54.215424Z

Period
94.01 min
Inclination
53.1569°
Eccentricity
0.0001328
Mean motion
15.31706164 rev/d
Perigee alt
469.8 km
Apogee alt
471.6 km
Semi-major
6,848.9 km
B*
3.6929e-5
RAAN
195.2929°
Arg perigee
74.1576°
Mean anomaly
285.9571°
Rev number
27,822

§ Raw data

STARLINK-26591 48467U 21040AR  26145.16729416  .00000781  00000+0  36929-4 0  99982 48467  53.1569 195.2929 0001328  74.1576 285.9571 15.31706164278223

JSON: /api/v1/satellites/48467 · /tle

For live sub-satellite position, see the globe view (requires WebGL).

§ Visibility from observer

Set your observer location to see the next 7 days of passes ≥ 10°. The values pass through the URL so the page stays shareable.

No JS? Fill the form by hand. The geolocation button needs JavaScript.